XAV9234 UOOO-UOHH

Flight info

Callsign XAV9234
Flight time 1h 28m
Altitude 21000
Route LORDA W27 MINPI
Aircraft AN12/M-SDE2E3FGRY/H

Departure

Time 2026-04-20 07:30
Airport Alykel International Airport (UOOO)

Arrival

Time 2026-04-20 08:58
Airport Khatanga Airport (UOHH)
Time Latitude Longitude Altitude Speed Heading
2026-04-20 07:15 69.32137 87.34300 604 ft 0 kts 349°
2026-04-20 07:17 69.32138 87.34300 604 ft 0 kts 349°
2026-04-20 07:21 69.32139 87.34300 604 ft 0 kts 349°
2026-04-20 07:22 69.32143 87.34297 604 ft 2 kts 349°
2026-04-20 07:22 69.32161 87.34340 604 ft 5 kts 89°
2026-04-20 07:22 69.32132 87.34429 603 ft 9 kts 160°
2026-04-20 07:22 69.32091 87.34373 603 ft 6 kts 213°
2026-04-20 07:23 69.32053 87.34310 603 ft 7 kts 199°
2026-04-20 07:23 69.32010 87.34363 602 ft 9 kts 125°
2026-04-20 07:23 69.31965 87.34564 600 ft 15 kts 120°
2026-04-20 07:23 69.31894 87.34631 602 ft 10 kts 212°
2026-04-20 07:24 69.31840 87.34534 604 ft 12 kts 212°
2026-04-20 07:24 69.31740 87.34357 603 ft 23 kts 213°
2026-04-20 07:24 69.31583 87.34079 599 ft 29 kts 212°
2026-04-20 07:24 69.31423 87.33809 595 ft 25 kts 212°
2026-04-20 07:25 69.31281 87.33555 591 ft 24 kts 212°
2026-04-20 07:25 69.31141 87.33313 586 ft 24 kts 212°
2026-04-20 07:25 69.31004 87.33074 583 ft 23 kts 212°
2026-04-20 07:25 69.30872 87.32847 581 ft 22 kts 211°
2026-04-20 07:26 69.30741 87.32618 578 ft 22 kts 212°
2026-04-20 07:26 69.30609 87.32384 575 ft 22 kts 212°
2026-04-20 07:26 69.30476 87.32144 572 ft 26 kts 213°
2026-04-20 07:26 69.30321 87.31867 568 ft 25 kts 211°
2026-04-20 07:27 69.30177 87.31611 563 ft 24 kts 212°
2026-04-20 07:27 69.30038 87.31359 557 ft 24 kts 210°
2026-04-20 07:27 69.29900 87.31111 552 ft 23 kts 215°
2026-04-20 07:27 69.29822 87.30987 551 ft 6 kts 134°
2026-04-20 07:28 69.29837 87.31049 551 ft 2 kts 28°
2026-04-20 07:28 69.29840 87.31052 551 ft 0 kts 29°
2026-04-20 07:28 69.29840 87.31053 551 ft 0 kts 29°
2026-04-20 07:29 69.29841 87.31055 551 ft 3 kts 29°
2026-04-20 07:29 69.30091 87.31481 560 ft 83 kts 32°
2026-04-20 07:29 69.30756 87.32647 597 ft 135 kts 29°
2026-04-20 07:30 69.31628 87.34114 827 ft 155 kts 27°
2026-04-20 07:30 69.32586 87.35654 1219 ft 162 kts 28°
2026-04-20 07:30 69.33595 87.37299 1536 ft 173 kts 30°
2026-04-20 07:30 69.34517 87.39597 1979 ft 179 kts 45°
2026-04-20 07:31 69.35292 87.42305 2549 ft 178 kts 50°
2026-04-20 07:31 69.36075 87.45012 3106 ft 174 kts 50°
2026-04-20 07:31 69.36860 87.47495 3740 ft 168 kts 47°
2026-04-20 07:31 69.37687 87.49882 4197 ft 172 kts 45°
2026-04-20 07:32 69.38575 87.52266 4526 ft 184 kts 43°
2026-04-20 07:32 69.39439 87.55219 4579 ft 205 kts 57°
2026-04-20 07:32 69.40161 87.58783 4957 ft 210 kts 61°
2026-04-20 07:32 69.40852 87.62407 5482 ft 207 kts 62°
2026-04-20 07:33 69.41528 87.65939 5994 ft 202 kts 61°
2026-04-20 07:33 69.42223 87.69455 6348 ft 206 kts 60°
2026-04-20 07:33 69.42953 87.73006 6681 ft 210 kts 59°
2026-04-20 07:33 69.43730 87.76571 7029 ft 213 kts 58°
2026-04-20 07:34 69.44524 87.80145 7421 ft 214 kts 57°
2026-04-20 07:34 69.45323 87.83720 7835 ft 214 kts 57°
2026-04-20 07:34 69.46133 87.87260 8251 ft 213 kts 56°
2026-04-20 07:35 69.47764 87.94304 9034 ft 213 kts 56°
2026-04-20 07:35 69.48583 87.97845 9404 ft 214 kts 56°
2026-04-20 07:35 69.49401 88.01397 9768 ft 215 kts 56°
2026-04-20 07:35 69.50219 88.04983 10129 ft 216 kts 56°
2026-04-20 07:36 69.51041 88.08562 10480 ft 216 kts 54°
2026-04-20 07:36 69.51908 88.12098 10803 ft 218 kts 53°
2026-04-20 07:36 69.52790 88.15647 11124 ft 220 kts 53°
2026-04-20 07:36 69.53677 88.19221 11448 ft 221 kts 53°
2026-04-20 07:37 69.54569 88.22820 11774 ft 222 kts 53°
2026-04-20 07:37 69.55456 88.26432 12097 ft 223 kts 53°
2026-04-20 07:37 69.56343 88.30068 12415 ft 223 kts 53°
2026-04-20 07:37 69.57220 88.33673 12726 ft 224 kts 53°
2026-04-20 07:38 69.58120 88.37379 13032 ft 224 kts 53°
2026-04-20 07:38 69.59013 88.41049 13326 ft 225 kts 53°
2026-04-20 07:38 69.59907 88.44734 13618 ft 226 kts 53°
2026-04-20 07:38 69.60785 88.48400 13898 ft 226 kts 53°
2026-04-20 07:39 69.61678 88.52201 14183 ft 227 kts 53°
2026-04-20 07:39 69.62541 88.55916 14448 ft 227 kts 54°
2026-04-20 07:39 69.63418 88.59696 14713 ft 228 kts 53°
2026-04-20 07:39 69.64296 88.63495 14976 ft 228 kts 54°
2026-04-20 07:40 69.65174 88.67301 15231 ft 229 kts 54°
2026-04-20 07:40 69.66053 88.71116 15478 ft 229 kts 53°
2026-04-20 07:40 69.66932 88.74942 15721 ft 230 kts 53°
2026-04-20 07:40 69.67814 88.78790 15956 ft 230 kts 53°
2026-04-20 07:41 69.68697 88.82646 16184 ft 231 kts 53°
2026-04-20 07:41 69.69580 88.86513 16405 ft 232 kts 54°
2026-04-20 07:41 69.70452 88.90430 16624 ft 232 kts 54°
2026-04-20 07:41 69.71318 88.94367 16837 ft 233 kts 54°
2026-04-20 07:42 69.72186 88.98326 17046 ft 234 kts 54°
2026-04-20 07:42 69.73054 89.02301 17255 ft 235 kts 54°
2026-04-20 07:42 69.73955 89.06223 17458 ft 235 kts 51°
2026-04-20 07:42 69.74910 89.10043 17659 ft 235 kts 51°
2026-04-20 07:43 69.75875 89.13860 17859 ft 235 kts 50°
2026-04-20 07:43 69.76840 89.17678 18058 ft 236 kts 50°
2026-04-20 07:43 69.77805 89.21492 18249 ft 236 kts 50°
2026-04-20 07:43 69.78781 89.25347 18438 ft 237 kts 50°
2026-04-20 07:44 69.79743 89.29211 18627 ft 237 kts 51°
2026-04-20 07:44 69.80695 89.33117 18813 ft 238 kts 51°
2026-04-20 07:44 69.81647 89.37037 18993 ft 238 kts 51°
2026-04-20 07:44 69.82601 89.40971 19167 ft 239 kts 51°
2026-04-20 07:45 69.83556 89.44907 19340 ft 239 kts 51°
2026-04-20 07:45 69.84504 89.48868 19514 ft 239 kts 52°
2026-04-20 07:45 69.85442 89.52866 19683 ft 240 kts 52°
2026-04-20 07:45 69.86379 89.56886 19848 ft 241 kts 52°
2026-04-20 07:46 69.87317 89.60910 20013 ft 241 kts 52°
2026-04-20 07:46 69.88255 89.64944 20179 ft 241 kts 52°
2026-04-20 07:46 69.89189 89.68998 20340 ft 242 kts 52°
2026-04-20 07:46 69.90114 89.73091 20495 ft 243 kts 53°
2026-04-20 07:47 69.91037 89.77204 20648 ft 243 kts 53°
2026-04-20 07:47 69.91960 89.81323 20805 ft 244 kts 53°
2026-04-20 07:47 69.92884 89.85463 20962 ft 244 kts 53°
2026-04-20 07:47 69.93511 89.88268 21014 ft 247 kts 53°
2026-04-20 07:48 69.94459 89.92494 21029 ft 250 kts 53°
2026-04-20 07:48 69.95414 89.96762 21033 ft 253 kts 53°
2026-04-20 07:48 69.96366 90.01105 21035 ft 255 kts 54°
2026-04-20 07:48 69.97326 90.05499 21035 ft 258 kts 53°
2026-04-20 07:49 69.98344 90.09815 21036 ft 259 kts 51°
2026-04-20 07:49 69.99390 90.14018 21037 ft 261 kts 50°
2026-04-20 07:49 70.00481 90.18363 21038 ft 263 kts 50°
2026-04-20 07:49 70.01546 90.22644 21038 ft 264 kts 51°
2026-04-20 07:50 70.02627 90.27005 21039 ft 266 kts 51°
2026-04-20 07:50 70.03716 90.31397 21040 ft 267 kts 51°
2026-04-20 07:50 70.04808 90.35809 21039 ft 269 kts 51°
2026-04-20 07:50 70.05896 90.40279 21040 ft 270 kts 51°
2026-04-20 07:51 70.06982 90.44783 21040 ft 271 kts 51°
2026-04-20 07:51 70.08071 90.49307 21040 ft 272 kts 51°
2026-04-20 07:51 70.09157 90.53863 21046 ft 273 kts 53°
2026-04-20 07:51 70.10228 90.58444 21107 ft 271 kts 56°
2026-04-20 07:52 70.11299 90.63086 21167 ft 270 kts 56°
2026-04-20 07:52 70.12349 90.67676 21180 ft 271 kts 57°
2026-04-20 07:52 70.13390 90.72316 21183 ft 272 kts 57°
2026-04-20 07:52 70.14437 90.76970 21183 ft 273 kts 57°
2026-04-20 07:53 70.15483 90.81651 21184 ft 274 kts 57°
2026-04-20 07:53 70.16530 90.86356 21184 ft 275 kts 57°
2026-04-20 07:53 70.17578 90.91067 21184 ft 276 kts 57°
2026-04-20 07:53 70.18616 90.95748 21184 ft 276 kts 58°
2026-04-20 07:54 70.19667 91.00578 21184 ft 277 kts 58°
2026-04-20 07:54 70.20701 91.05380 21183 ft 277 kts 58°
2026-04-20 07:54 70.21786 91.10095 21183 ft 278 kts 56°
2026-04-20 07:54 70.22914 91.14731 21183 ft 278 kts 54°
2026-04-20 07:55 70.24059 91.19342 21183 ft 279 kts 54°
2026-04-20 07:55 70.25210 91.23955 21183 ft 279 kts 54°
2026-04-20 07:55 70.26349 91.28594 21183 ft 279 kts 54°
2026-04-20 07:55 70.27483 91.33251 21182 ft 279 kts 55°
2026-04-20 07:56 70.28598 91.37850 21182 ft 279 kts 55°
2026-04-20 07:56 70.29715 91.42550 21182 ft 279 kts 56°
2026-04-20 07:56 70.30821 91.47260 21182 ft 279 kts 56°
2026-04-20 07:56 70.31920 91.52000 21182 ft 279 kts 56°
2026-04-20 07:57 70.33003 91.56763 21182 ft 279 kts 56°
2026-04-20 07:57 70.34078 91.61544 21182 ft 278 kts 57°
2026-04-20 07:57 70.35151 91.66332 21182 ft 278 kts 57°
2026-04-20 07:57 70.36224 91.71123 21182 ft 278 kts 57°
2026-04-20 07:58 70.37297 91.75910 21182 ft 278 kts 57°
2026-04-20 07:58 70.38362 91.80699 21182 ft 278 kts 57°
2026-04-20 07:58 70.39416 91.85531 21182 ft 278 kts 57°
2026-04-20 07:58 70.40460 91.90364 21182 ft 278 kts 57°
2026-04-20 07:59 70.41504 91.95204 21182 ft 278 kts 57°
2026-04-20 07:59 70.42544 92.00064 21182 ft 278 kts 58°
2026-04-20 07:59 70.43570 92.04941 21182 ft 278 kts 58°
2026-04-20 07:59 70.44656 92.09705 21182 ft 277 kts 55°
2026-04-20 08:00 70.45775 92.14390 21182 ft 277 kts 54°
2026-04-20 08:00 70.46909 92.19054 21182 ft 277 kts 54°
2026-04-20 08:00 70.48049 92.23707 21182 ft 277 kts 54°
2026-04-20 08:00 70.49179 92.28390 21182 ft 277 kts 55°
2026-04-20 08:01 70.50285 92.33115 21182 ft 277 kts 56°
2026-04-20 08:01 70.51379 92.37858 21182 ft 277 kts 56°
2026-04-20 08:01 70.52471 92.42613 21182 ft 277 kts 56°
2026-04-20 08:01 70.53560 92.47393 21182 ft 277 kts 56°
2026-04-20 08:02 70.54635 92.52196 21182 ft 277 kts 57°
2026-04-20 08:02 70.55706 92.57009 21182 ft 277 kts 57°
2026-04-20 08:02 70.56778 92.61833 21183 ft 278 kts 57°
2026-04-20 08:02 70.57842 92.66658 21183 ft 278 kts 57°
2026-04-20 08:03 70.58912 92.71589 21183 ft 278 kts 58°
2026-04-20 08:03 70.59957 92.76475 21183 ft 278 kts 58°
2026-04-20 08:03 70.60973 92.81323 21179 ft 278 kts 58°
2026-04-20 08:03 70.62012 92.86313 21179 ft 278 kts 58°
2026-04-20 08:04 70.63018 92.91149 21178 ft 274 kts 58°
2026-04-20 08:04 70.64024 92.96004 21176 ft 271 kts 59°
2026-04-20 08:04 70.65017 93.00788 21175 ft 268 kts 58°
2026-04-20 08:04 70.66021 93.05493 21172 ft 265 kts 57°
2026-04-20 08:05 70.67078 93.10020 21172 ft 263 kts 55°
2026-04-20 08:05 70.68143 93.14481 21171 ft 261 kts 55°
2026-04-20 08:05 70.69199 93.18917 21170 ft 259 kts 56°
2026-04-20 08:05 70.70231 93.23357 21168 ft 257 kts 56°
2026-04-20 08:06 70.71233 93.27811 21168 ft 256 kts 57°
2026-04-20 08:06 70.72223 93.32266 21167 ft 254 kts 57°
2026-04-20 08:06 70.73197 93.36730 21166 ft 253 kts 58°
2026-04-20 08:06 70.74154 93.41197 21165 ft 252 kts 58°
2026-04-20 08:07 70.75105 93.45659 21165 ft 252 kts 58°
2026-04-20 08:07 70.76051 93.50106 21164 ft 251 kts 58°
2026-04-20 08:07 70.76990 93.54563 21164 ft 250 kts 58°
2026-04-20 08:07 70.77913 93.59030 21164 ft 250 kts 59°
2026-04-20 08:08 70.78832 93.63504 21163 ft 249 kts 59°
2026-04-20 08:08 70.79748 93.67966 21163 ft 249 kts 59°
2026-04-20 08:08 70.80664 93.72430 21163 ft 249 kts 59°
2026-04-20 08:08 70.81574 93.76898 21162 ft 248 kts 59°
2026-04-20 08:09 70.82472 93.81378 21162 ft 248 kts 59°
2026-04-20 08:09 70.83374 93.85849 21162 ft 248 kts 59°
2026-04-20 08:09 70.84281 93.90322 21162 ft 248 kts 59°
2026-04-20 08:09 70.85202 93.94833 21162 ft 248 kts 59°
2026-04-20 08:10 70.86116 93.99276 21162 ft 247 kts 59°
2026-04-20 08:10 70.87046 94.03685 21161 ft 247 kts 57°
2026-04-20 08:10 70.87979 94.08078 21162 ft 247 kts 59°
2026-04-20 08:10 70.88890 94.12518 21162 ft 246 kts 59°
2026-04-20 08:11 70.89794 94.16959 21162 ft 246 kts 59°
2026-04-20 08:11 70.90695 94.21394 21162 ft 246 kts 59°
2026-04-20 08:11 70.91596 94.25826 21161 ft 246 kts 59°
2026-04-20 08:11 70.92499 94.30264 21161 ft 246 kts 59°
2026-04-20 08:12 70.93403 94.34697 21161 ft 245 kts 59°
2026-04-20 08:12 70.94309 94.39116 21161 ft 245 kts 59°
2026-04-20 08:12 70.95185 94.43591 21155 ft 245 kts 63°
2026-04-20 08:12 70.95934 94.48268 21159 ft 245 kts 65°
2026-04-20 08:13 70.96627 94.53025 21160 ft 244 kts 67°
2026-04-20 08:13 70.97290 94.57821 21160 ft 244 kts 68°
2026-04-20 08:13 70.97942 94.62630 21160 ft 244 kts 68°
2026-04-20 08:13 70.98594 94.67444 21160 ft 244 kts 68°
2026-04-20 08:14 70.99246 94.72251 21160 ft 244 kts 68°
2026-04-20 08:14 70.99883 94.77083 21160 ft 244 kts 69°
2026-04-20 08:14 71.00494 94.81954 21160 ft 244 kts 69°
2026-04-20 08:14 71.01095 94.86830 21161 ft 244 kts 69°
2026-04-20 08:15 71.01695 94.91700 21161 ft 244 kts 69°
2026-04-20 08:15 71.02296 94.96583 21161 ft 244 kts 69°
2026-04-20 08:15 71.02899 95.01463 21161 ft 244 kts 69°
2026-04-20 08:15 71.03529 95.06299 21160 ft 244 kts 67°
2026-04-20 08:16 71.04226 95.11063 21160 ft 244 kts 66°
2026-04-20 08:16 71.04938 95.15796 21161 ft 244 kts 66°
2026-04-20 08:16 71.05645 95.20547 21161 ft 244 kts 66°
2026-04-20 08:16 71.06350 95.25292 21160 ft 244 kts 66°
2026-04-20 08:17 71.07056 95.30035 21161 ft 244 kts 66°
2026-04-20 08:17 71.07755 95.34794 21160 ft 244 kts 66°
2026-04-20 08:17 71.08443 95.39569 21160 ft 244 kts 67°
2026-04-20 08:17 71.09120 95.44361 21161 ft 244 kts 68°
2026-04-20 08:18 71.09782 95.49169 21161 ft 244 kts 68°
2026-04-20 08:18 71.10440 95.53977 21161 ft 243 kts 68°
2026-04-20 08:18 71.11101 95.58787 21161 ft 243 kts 68°
2026-04-20 08:18 71.11755 95.63608 21161 ft 243 kts 68°
2026-04-20 08:19 71.12397 95.68445 21161 ft 243 kts 69°
2026-04-20 08:19 71.13034 95.73282 21161 ft 243 kts 69°
2026-04-20 08:19 71.13670 95.78116 21161 ft 243 kts 69°
2026-04-20 08:19 71.14296 95.82898 21161 ft 243 kts 69°
2026-04-20 08:20 71.14931 95.87814 21160 ft 243 kts 69°
2026-04-20 08:20 71.15541 95.92605 21160 ft 243 kts 69°
2026-04-20 08:20 71.16168 95.97543 21160 ft 243 kts 69°
2026-04-20 08:20 71.16786 96.02409 21161 ft 243 kts 69°
2026-04-20 08:21 71.17424 96.07177 21160 ft 243 kts 67°
2026-04-20 08:21 71.18131 96.11929 21161 ft 243 kts 66°
2026-04-20 08:21 71.18847 96.16667 21161 ft 243 kts 66°
2026-04-20 08:21 71.19567 96.21416 21161 ft 243 kts 66°
2026-04-20 08:22 71.20284 96.26157 21160 ft 243 kts 66°
2026-04-20 08:22 71.20986 96.30909 21161 ft 243 kts 67°
2026-04-20 08:22 71.21684 96.35687 21161 ft 243 kts 67°
2026-04-20 08:22 71.22380 96.40453 21161 ft 243 kts 67°
2026-04-20 08:23 71.23073 96.45237 21159 ft 243 kts 67°
2026-04-20 08:23 71.23747 96.50015 21160 ft 242 kts 68°
2026-04-20 08:23 71.24421 96.54827 21160 ft 242 kts 68°
2026-04-20 08:23 71.25094 96.59639 21160 ft 242 kts 68°
2026-04-20 08:24 71.25756 96.64463 21157 ft 243 kts 68°
2026-04-20 08:24 71.26409 96.69293 21156 ft 243 kts 68°
2026-04-20 08:24 71.27060 96.74135 21156 ft 243 kts 68°
2026-04-20 08:24 71.27712 96.78978 21156 ft 243 kts 68°
2026-04-20 08:25 71.28359 96.83839 21155 ft 243 kts 69°
2026-04-20 08:25 71.28990 96.88705 21155 ft 243 kts 69°
2026-04-20 08:25 71.29619 96.93583 21155 ft 243 kts 69°
2026-04-20 08:25 71.30240 96.98484 21158 ft 243 kts 70°
2026-04-20 08:26 71.30846 97.03388 21155 ft 243 kts 70°
2026-04-20 08:26 71.31491 97.08245 21155 ft 243 kts 68°
2026-04-20 08:26 71.32190 97.13042 21155 ft 243 kts 66°
2026-04-20 08:26 71.32910 97.17818 21155 ft 243 kts 66°
2026-04-20 08:27 71.33638 97.22581 21154 ft 243 kts 66°
2026-04-20 08:27 71.34362 97.27355 21139 ft 244 kts 66°
2026-04-20 08:27 71.34837 97.30544 21137 ft 244 kts 66°
2026-04-20 08:27 71.35545 97.35344 21136 ft 244 kts 67°
2026-04-20 08:28 71.36241 97.40181 21136 ft 244 kts 68°
2026-04-20 08:28 71.36928 97.45016 21135 ft 244 kts 68°
2026-04-20 08:28 71.37614 97.49848 21135 ft 243 kts 68°
2026-04-20 08:28 71.38299 97.54700 21135 ft 243 kts 68°
2026-04-20 08:29 71.38969 97.59561 21135 ft 243 kts 68°
2026-04-20 08:29 71.39632 97.64448 21134 ft 243 kts 69°
2026-04-20 08:29 71.40277 97.69340 21134 ft 243 kts 69°
2026-04-20 08:29 71.40917 97.74244 21134 ft 243 kts 69°
2026-04-20 08:30 71.41559 97.79161 21134 ft 243 kts 69°
2026-04-20 08:30 71.42198 97.84073 21133 ft 243 kts 70°
2026-04-20 08:30 71.42822 97.89004 21133 ft 243 kts 70°
2026-04-20 08:30 71.43442 97.93944 21133 ft 243 kts 70°
2026-04-20 08:31 71.44062 97.98883 21133 ft 243 kts 70°
2026-04-20 08:31 71.44680 98.03823 21132 ft 243 kts 70°
2026-04-20 08:31 71.45359 98.08702 21131 ft 244 kts 67°
2026-04-20 08:31 71.46078 98.13536 21132 ft 244 kts 67°
2026-04-20 08:32 71.46804 98.18366 21132 ft 244 kts 67°
2026-04-20 08:32 71.47526 98.23199 21131 ft 244 kts 67°
2026-04-20 08:32 71.48234 98.28045 21131 ft 244 kts 67°
2026-04-20 08:32 71.48933 98.32916 21131 ft 244 kts 68°
2026-04-20 08:33 71.49618 98.37812 21131 ft 244 kts 68°
2026-04-20 08:33 71.50946 98.47638 21130 ft 244 kts 69°
2026-04-20 08:33 71.51596 98.52572 21130 ft 244 kts 69°
2026-04-20 08:34 71.52247 98.57516 21130 ft 244 kts 69°
2026-04-20 08:34 71.52894 98.62461 21130 ft 244 kts 70°
2026-04-20 08:34 71.53526 98.67425 21130 ft 244 kts 70°
2026-04-20 08:34 71.54152 98.72394 21129 ft 244 kts 70°
2026-04-20 08:35 71.54780 98.77371 21129 ft 244 kts 70°
2026-04-20 08:35 71.55409 98.82355 21129 ft 244 kts 70°
2026-04-20 08:35 71.56038 98.87322 21129 ft 244 kts 70°
2026-04-20 08:35 71.56666 98.92310 21093 ft 243 kts 70°
2026-04-20 08:36 71.57266 98.97184 21050 ft 226 kts 71°
2026-04-20 08:36 71.57829 99.01812 20852 ft 226 kts 71°
2026-04-20 08:36 71.58424 99.06395 20552 ft 227 kts 68°
2026-04-20 08:36 71.59077 99.10972 20208 ft 229 kts 68°
2026-04-20 08:37 71.59740 99.15576 19883 ft 230 kts 68°
2026-04-20 08:37 71.60391 99.20214 19574 ft 231 kts 68°
2026-04-20 08:37 71.61034 99.24873 19249 ft 231 kts 68°
2026-04-20 08:37 71.61673 99.29563 18924 ft 232 kts 69°
2026-04-20 08:38 71.62299 99.34287 18613 ft 232 kts 69°
2026-04-20 08:38 71.62917 99.38999 18312 ft 232 kts 69°
2026-04-20 08:38 71.63534 99.43722 18016 ft 231 kts 69°
2026-04-20 08:38 71.64142 99.48430 17727 ft 231 kts 70°
2026-04-20 08:39 71.64735 99.53149 17441 ft 230 kts 70°
2026-04-20 08:39 71.65319 99.57853 17167 ft 228 kts 70°
2026-04-20 08:39 71.65900 99.62528 16894 ft 228 kts 70°
2026-04-20 08:39 71.66476 99.67212 16622 ft 227 kts 70°
2026-04-20 08:40 71.67033 99.71884 16351 ft 226 kts 71°
2026-04-20 08:40 71.67581 99.76547 16080 ft 225 kts 71°
2026-04-20 08:40 71.68127 99.81209 15806 ft 225 kts 71°
2026-04-20 08:40 71.68668 99.85848 15535 ft 224 kts 71°
2026-04-20 08:41 71.69209 99.90484 15256 ft 223 kts 71°
2026-04-20 08:41 71.69746 99.95112 14948 ft 224 kts 70°
2026-04-20 08:41 71.70285 99.99757 14644 ft 224 kts 70°
2026-04-20 08:41 71.70842 100.04383 14349 ft 224 kts 69°
2026-04-20 08:42 71.71447 100.08961 14061 ft 223 kts 68°
2026-04-20 08:42 71.72062 100.13487 13781 ft 223 kts 67°
2026-04-20 08:42 71.72668 100.18031 13503 ft 222 kts 68°
2026-04-20 08:42 71.73260 100.22555 13223 ft 221 kts 68°
2026-04-20 08:43 71.73837 100.27084 12944 ft 220 kts 69°
2026-04-20 08:43 71.74399 100.31615 12666 ft 219 kts 69°
2026-04-20 08:43 71.74957 100.36139 12384 ft 218 kts 69°
2026-04-20 08:43 71.75502 100.40621 12102 ft 217 kts 69°
2026-04-20 08:44 71.76032 100.45119 11820 ft 216 kts 70°
2026-04-20 08:44 71.76550 100.49612 11533 ft 215 kts 70°
2026-04-20 08:44 71.77059 100.54071 11245 ft 214 kts 70°
2026-04-20 08:44 71.77560 100.58534 10952 ft 212 kts 71°
2026-04-20 08:45 71.78054 100.62950 10655 ft 211 kts 71°
2026-04-20 08:45 71.78549 100.67365 10360 ft 210 kts 70°
2026-04-20 08:45 71.79044 100.71757 10060 ft 209 kts 71°
2026-04-20 08:45 71.79536 100.76123 9747 ft 208 kts 70°
2026-04-20 08:46 71.80029 100.80459 9433 ft 207 kts 71°
2026-04-20 08:46 71.80524 100.84786 9116 ft 207 kts 70°
2026-04-20 08:46 71.81020 100.89097 8797 ft 206 kts 70°
2026-04-20 08:46 71.81509 100.93395 8483 ft 205 kts 71°
2026-04-20 08:47 71.81989 100.97687 8173 ft 204 kts 71°
2026-04-20 08:47 71.82469 101.01935 7862 ft 202 kts 71°
2026-04-20 08:47 71.82925 101.06179 7545 ft 201 kts 73°
2026-04-20 08:47 71.83281 101.10496 7220 ft 200 kts 77°
2026-04-20 08:48 71.83517 101.14883 6885 ft 199 kts 81°
2026-04-20 08:48 71.83692 101.19246 6564 ft 196 kts 83°
2026-04-20 08:48 71.83851 101.23563 6247 ft 193 kts 83°
2026-04-20 08:48 71.84009 101.27812 5913 ft 192 kts 83°
2026-04-20 08:49 71.84165 101.32042 5594 ft 190 kts 83°
2026-04-20 08:49 71.84319 101.36221 5286 ft 187 kts 83°
2026-04-20 08:49 71.84477 101.40315 5022 ft 183 kts 83°
2026-04-20 08:49 71.84633 101.44330 4728 ft 180 kts 83°
2026-04-20 08:50 71.84786 101.48292 4417 ft 178 kts 83°
2026-04-20 08:50 71.84942 101.52232 4097 ft 177 kts 83°
2026-04-20 08:50 71.85100 101.56140 3778 ft 176 kts 82°
2026-04-20 08:50 71.85270 101.60019 3472 ft 175 kts 80°
2026-04-20 08:51 71.85569 101.63763 3214 ft 172 kts 75°
2026-04-20 08:51 71.85907 101.67409 2977 ft 169 kts 76°
2026-04-20 08:51 71.86151 101.71069 2713 ft 168 kts 79°
2026-04-20 08:51 71.86361 101.74749 2457 ft 167 kts 80°
2026-04-20 08:52 71.86568 101.78415 2243 ft 166 kts 79°
2026-04-20 08:52 71.86834 101.82002 2008 ft 166 kts 73°
2026-04-20 08:52 71.87174 101.85536 1790 ft 166 kts 74°
2026-04-20 08:52 71.87507 101.88943 1784 ft 154 kts 71°
2026-04-20 08:53 71.87945 101.92052 1773 ft 152 kts 63°
2026-04-20 08:53 71.88482 101.94906 1796 ft 145 kts 60°
2026-04-20 08:53 71.89025 101.97551 1771 ft 139 kts 59°
2026-04-20 08:53 71.89449 102.00296 1739 ft 135 kts 69°
2026-04-20 08:54 71.89761 102.03084 1716 ft 131 kts 71°
2026-04-20 08:54 71.90077 102.05840 1712 ft 133 kts 69°
2026-04-20 08:54 71.90503 102.08507 1724 ft 136 kts 63°
2026-04-20 08:54 71.90980 102.11175 1691 ft 139 kts 62°
2026-04-20 08:55 71.91441 102.13873 1705 ft 140 kts 63°
2026-04-20 08:55 71.91889 102.16655 1723 ft 140 kts 65°
2026-04-20 08:55 71.92313 102.19474 1766 ft 137 kts 65°
2026-04-20 08:55 71.92701 102.22072 1826 ft 121 kts 66°
2026-04-20 08:56 71.93066 102.24532 1624 ft 123 kts 65°
2026-04-20 08:56 71.93445 102.27057 1414 ft 130 kts 64°
2026-04-20 08:56 71.93846 102.29738 1222 ft 135 kts 63°
2026-04-20 08:56 71.94278 102.32456 1025 ft 138 kts 62°
2026-04-20 08:57 71.94717 102.35191 826 ft 136 kts 62°
2026-04-20 08:57 71.95130 102.37876 654 ft 131 kts 63°
2026-04-20 08:57 71.95538 102.40527 451 ft 130 kts 62°
2026-04-20 08:57 71.95941 102.43105 299 ft 131 kts 62°
2026-04-20 08:58 71.96345 102.45748 129 ft 130 kts 62°
2026-04-20 08:58 71.96721 102.48187 108 ft 105 kts 63°
2026-04-20 08:58 71.96952 102.49688 108 ft 44 kts 64°